Temp
7 7 7 8 8 7 6 7 7 7 7 7 7 8 8 8 8 8 8 8 8 8 8 8 8 8 8 8 8 8 7 7 7
7 7 7 7 7 8 7 7 7 7 7 7 7 7 7 8 8 8 8 8 8 8 8 8 8 8 8 8 8 8 7 7 7
7 7 7 7 7 7 8 7 7 7 6 7 7 7 7 8 8 8 8 8 8 8 8 8 8 8 8 8 8 8 7 7 7
6 6 7 7 7 7 7 8 7 6 5 7 7 7 7 8 8 8 8 8 8 8 8 8 8 8 7 7 8 8 7 7 6
6 6 7 7 7 7 7 7 8 8 7 6 7 8 8 8 8 8 8 8 8 8 8 8 8 8 8 7 7 8 7 7 6
6 6 6 6 7 7 7 7 8 8 7 7 7 7 7 7 8 8 8 8 8 7 7 8 8 8 8 8 7 7 7 7 7
6 6 6 6 6 6 7 7 7 7 7 7 7 6 6 7 6 7 8 7 8 7 7 7 8 8 7 7 8 7 7 7 7
6 6 6 6 6 6 6 6 6 6 7 7 7 6 6 6 6 6 7 7 8 7 7 6 7 8 8 7 7 7 7 7 7
6 6 6 6 6 6 6 6 6 6 6 7 6 6 6 6 6 5 5 6 7 8 7 7 6 7 7 7 7 7 7 7 7
6 6 6 6 6 7 7 6 6 6 6 6 6 6 6 6 6 6 5 5 5 6 8 7 7 6 7 7 7 7 7 7 7
6 6 6 6 7 7 7 7 7 7 6 6 7 6 5 6 5 6 6 6 5 5 5 6 7 6 7 7 6 7 7 7 7
6 6 6 6 7 7 7 7 7 7 7 7 7 7 6 6 5 5 6 6 6 6 5 4 5 5 6 7 7 7 6 7 7
6 6 6 6 7 7 7 7 7 7 7 7 7 7 7 6 6 6 6 5 6 6 6 5 4 3 3 6 7 7 7 6 7
6 6 6 6 6 6 7 7 7 7 7 7 7 7 7 7 7 6 6 6 6 5 6 6 5 5 3 4 6 7 7 7 6
6 6 6 6 6 6 6 6 6 7 7 7 7 7 7 7 7 7 6 6 7 6 6 6 5 5 4 4 4 6 7 7 7
5 5 5 5 6 6 6 6 6 7 7 7 7 7 7 7 7 7 7 7 7 6 6 6 5 5 5 5 4 4 6 7 7
4 4 5 5 5 5 5 6 6 6 6 6 7 7 7 7 7 7 7 7 7 7 7 6 6 5 5 5 4 4 4 6 7
4 4 4 4 5 5 5 5 5 5 6 6 6 6 7 7 7 7 7 7 7 7 7 7 7 6 6 5 4 4 4 4 6
3 4 4 4 4 5 5 5 5 5 5 5 6 6 6 7 7 7 7 7 8 8 8 7 7 7 7 6 5 4 4 3 4
3 3 3 3 4 4 4 4 4 5 5 5 5 5 6 6 7 7 7 7 7 8 8 8 7 7 7 7 6 5 4 4 3
Height
3158 3160 3160 3160 3159 3160 3162 3163 3164 3166 3167 3168 3167 3167 3166 3166 3166 3165 3165 3165 3164 3163 3162 3158 3158 3157 3156 3155 3155 3154 3152 3151 3151
3157 3159 3160 3161 3161 3161 3160 3162 3163 3164 3165 3166 3167 3167 3167 3166 3166 3167 3166 3165 3166 3165 3164 3162 3159 3158 3158 3157 3156 3156 3155 3154 3152
3156 3157 3159 3160 3161 3161 3161 3161 3162 3163 3164 3165 3166 3167 3167 3166 3166 3167 3167 3166 3166 3166 3166 3165 3163 3160 3159 3159 3158 3157 3157 3156 3155
3153 3156 3158 3160 3161 3161 3162 3162 3161 3162 3163 3163 3164 3165 3166 3166 3165 3166 3167 3167 3166 3166 3166 3167 3165 3163 3160 3160 3159 3159 3158 3158 3157
3152 3154 3156 3158 3160 3161 3162 3163 3163 3162 3162 3162 3163 3163 3163 3165 3165 3166 3166 3167 3166 3167 3167 3167 3167 3166 3163 3161 3161 3160 3160 3159 3158
3150 3152 3154 3156 3158 3159 3160 3161 3162 3163 3165 3164 3164 3164 3163 3162 3164 3165 3165 3165 3165 3166 3167 3167 3168 3167 3167 3164 3162 3161 3161 3161 3160
3147 3150 3152 3154 3156 3158 3159 3160 3161 3162 3163 3164 3165 3164 3164 3163 3162 3163 3164 3164 3164 3164 3166 3166 3167 3167 3167 3167 3165 3163 3163 3162 3161
3144 3146 3148 3151 3154 3156 3156 3158 3159 3160 3161 3162 3163 3165 3164 3164 3163 3162 3163 3163 3164 3163 3163 3164 3165 3167 3168 3167 3166 3165 3164 3163 3163
3140 3143 3145 3147 3151 3153 3154 3155 3156 3157 3158 3159 3161 3162 3164 3165 3164 3164 3162 3163 3162 3162 3162 3163 3164 3165 3167 3168 3167 3167 3164 3165 3164
3135 3138 3141 3142 3145 3148 3150 3152 3153 3154 3155 3155 3157 3159 3162 3163 3163 3164 3164 3164 3163 3163 3161 3163 3162 3163 3164 3166 3167 3166 3166 3164 3165
3130 3133 3136 3138 3140 3141 3144 3146 3148 3149 3151 3152 3152 3154 3158 3160 3160 3162 3162 3163 3164 3163 3161 3160 3162 3163 3162 3164 3164 3167 3166 3166 3164
3124 3127 3130 3133 3134 3136 3138 3140 3143 3144 3146 3147 3148 3150 3152 3155 3157 3159 3159 3160 3161 3162 3162 3160 3160 3161 3161 3161 3163 3163 3166 3165 3164
3118 3121 3123 3126 3129 3131 3132 3134 3137 3139 3141 3143 3144 3146 3148 3150 3151 3153 3155 3157 3158 3159 3159 3160 3160 3160 3161 3159 3160 3162 3161 3164 3165
3112 3114 3117 3120 3122 3125 3127 3129 3131 3133 3134 3137 3139 3140 3143 3144 3145 3147 3150 3152 3154 3156 3157 3157 3157 3157 3159 3158 3157 3158 3159 3159 3162
3105 3107 3111 3113 3115 3118 3120 3122 3125 3125 3128 3130 3132 3134 3137 3139 3141 3142 3143 3146 3148 3151 3153 3154 3154 3154 3155 3156 3155 3155 3156 3157 3158
3097 3101 3104 3106 3109 3111 3114 3115 3117 3119 3121 3124 3126 3127 3129 3131 3134 3135 3137 3138 3141 3144 3147 3149 3150 3151 3152 3153 3153 3153 3153 3153 3154
3090 3093 3096 3098 3101 3103 3106 3108 3110 3112 3115 3117 3119 3121 3124 3122 3126 3129 3130 3132 3133 3134 3139 3142 3144 3146 3147 3149 3149 3150 3149 3150 3151
3082 3085 3088 3091 3093 3095 3097 3099 3102 3104 3107 3109 3112 3113 3115 3117 3118 3120 3122 3125 3126 3128 3129 3133 3136 3139 3141 3144 3145 3146 3147 3146 3147
3074 3077 3080 3082 3085 3088 3089 3091 3094 3096 3098 3101 3103 3105 3108 3108 3109 3112 3113 3116 3118 3120 3122 3124 3126 3129 3133 3136 3139 3140 3142 3143 3143
3066 3069 3072 3074 3077 3079 3081 3083 3085 3087 3090 3091 3093 3095 3097 3099 3100 3102 3104 3106 3108 3110 3113 3115 3117 3120 3124 3127 3130 3134 3136 3137 3138
Wind_Speed
5 4 4 6 8 10 7 3 3 6 10 12 10 10 9 9 11 12 14 15 14 14 12 12 13 12 13 12 11 11 10 10 9
8 6 5 4 6 6 9 6 6 7 6 8 9 11 8 7 8 11 12 13 14 14 13 11 11 11 12 12 12 10 10 9 9
9 9 8 8 7 6 6 8 6 5 6 5 5 7 8 7 7 8 10 10 12 12 13 12 10 10 10 10 11 11 11 10 9
12 11 9 8 8 7 5 5 7 6 5 3 3 5 4 5 6 7 8 10 11 11 11 13 12 9 8 9 10 11 11 11 10
14 13 11 10 9 7 5 5 4 2 5 4 2 1 3 0 3 6 6 8 10 10 11 11 12 10 9 8 9 10 10 11 11
17 15 14 13 11 10 9 6 3 4 8 5 2 2 2 4 2 2 4 5 7 9 11 12 12 12 11 9 8 8 9 9 10
20 19 17 16 15 13 11 10 9 11 12 10 10 7 5 3 4 3 1 3 5 6 7 10 12 11 11 10 9 8 8 8 8
21 21 20 19 19 19 18 18 16 14 15 15 12 14 9 6 5 3 3 1 2 3 5 6 9 11 10 10 9 8 8 8 7
21 22 21 20 20 20 20 21 20 18 17 17 15 14 12 11 9 8 4 3 2 1 2 4 6 8 10 9 8 9 8 9 8
24 24 24 23 23 23 23 23 23 23 21 20 18 17 17 14 12 11 10 7 6 5 3 1 3 5 6 8 9 8 8 7 9
28 28 29 29 29 29 28 28 27 26 24 22 20 19 20 19 17 16 14 14 12 10 8 2 1 3 4 5 5 9 8 9 6
32 32 32 31 30 29 28 27 27 26 26 25 23 22 22 22 21 22 20 19 17 14 14 9 8 2 2 3 4 3 10 10 8
32 31 30 30 29 29 28 28 28 28 28 27 27 25 25 25 24 24 23 22 19 18 15 13 14 11 9 3 4 5 3 10 12
32 32 32 32 31 31 31 31 31 31 30 30 29 29 29 28 28 26 25 25 23 25 20 17 16 14 14 9 5 4 5 5 9
34 34 34 33 33 33 33 33 33 33 33 33 32 32 31 30 30 30 31 29 24 24 25 23 18 17 16 13 11 7 6 7 6
35 35 35 35 35 35 35 35 34 34 34 34 34 34 34 33 32 32 33 33 31 27 26 26 25 22 20 18 15 13 10 8 9
35 35 35 36 36 36 35 34 34 35 35 35 35 36 36 38 35 34 34 34 34 35 32 27 28 29 26 22 21 18 16 12 10
36 36 36 36 36 36 36 35 35 35 35 35 36 38 39 38 39 39 38 37 37 36 36 36 32 31 31 29 24 22 21 19 15
36 36 37 37 37 37 37 37 37 37 37 37 37 38 39 41 42 41 42 42 42 41 41 41 40 37 35 32 31 27 24 24 21
36 36 36 37 37 37 38 38 38 38 39 39 39 39 40 41 43 44 45 45 45 44 44 44 44 43 41 38 37 34 31 27 28
Wind_Direction
177 168 151 144 141 141 148 124 46 36 32 31 37 26 22 31 25 33 34 29 27 28 30 49 47 46 53 52 48 52 57 63 61
198 187 176 173 171 159 138 124 87 62 51 49 48 41 32 18 34 25 32 36 26 21 22 30 50 46 45 50 51 48 49 52 64
216 204 194 180 190 202 176 149 133 103 76 51 38 37 40 29 26 31 25 36 37 24 21 18 30 46 49 46 50 50 49 51 47
211 211 206 198 191 196 232 201 161 154 156 129 62 57 55 36 39 36 27 29 39 26 22 17 15 27 52 49 44 47 46 48 47
216 212 208 202 202 196 196 264 271 162 162 176 155 109 107 155 26 47 35 25 39 25 20 19 19 14 31 44 44 40 43 43 50
222 215 206 201 204 205 195 193 192 309 335 318 280 252 186 160 219 59 53 45 41 36 16 14 11 25 17 28 33 37 35 37 40
218 215 214 216 209 209 216 225 248 279 296 308 298 275 260 227 176 194 126 55 68 61 34 16 5 13 22 12 17 25 23 29 35
223 222 225 228 229 232 238 249 258 269 283 286 286 289 281 264 259 206 213 207 42 64 66 31 9 4 15 15 8 8 9 12 16
226 231 235 238 239 242 245 249 257 264 273 279 279 272 285 291 272 269 237 246 261 287 61 62 26 12 8 4 7 354 5 354 358
232 236 241 244 246 248 252 254 257 261 262 269 270 266 269 279 283 283 289 284 284 282 272 25 56 21 16 3 349 350 343 352 349
239 243 247 249 251 253 254 255 256 258 260 262 263 263 264 267 267 273 283 288 285 286 272 251 295 36 5 2 356 333 332 330 343
246 247 248 249 249 249 251 253 257 258 258 257 258 263 265 264 267 268 271 275 274 285 292 284 254 230 3 330 334 327 322 322 320
243 244 245 247 248 250 252 253 255 258 259 260 258 257 262 267 267 265 266 269 270 264 274 275 277 236 251 277 307 308 299 315 314
242 243 244 245 248 250 252 253 256 257 259 260 259 259 259 262 267 269 269 266 262 263 264 263 264 268 250 254 265 282 281 284 307
244 246 248 249 251 252 253 254 255 257 258 260 261 261 261 258 259 262 267 270 267 262 262 259 258 257 260 263 269 264 254 260 275
245 246 247 248 250 250 251 253 255 256 257 258 259 262 262 262 260 261 263 265 269 267 263 258 254 252 254 262 268 267 260 247 254
247 249 250 251 252 252 253 254 254 255 256 258 258 257 259 259 262 261 262 264 266 267 264 259 256 254 257 252 259 268 271 259 245
248 249 250 252 253 255 256 256 256 257 257 255 256 259 258 260 261 263 263 262 264 266 266 261 259 257 256 256 257 260 269 266 257
249 249 250 251 252 254 255 257 257 258 259 259 257 256 257 260 262 261 263 264 264 263 264 266 266 263 259 255 254 256 261 267 265
249 250 250 251 252 253 254 256 257 258 258 259 260 259 259 258 258 260 263 264 263 263 263 264 265 266 264 260 255 253 258 258 262